Location: Unspecified
(42.9300°N, 71.1866°W)
Time: 16:23:37
(UTC-05:00)

CZ-3 Stage 3 - Visible Passes

Search period start: 26 November 2014 00:00
Search period end: 06 December 2014 00:00
Orbit: 426 x 34807 km, 31.0° (Epoch: 26 November)

Date Brightness Start Highest point End Pass type
(mag) Time Alt. Az. Time Alt. Az. Time Alt. Az.
26 Nov 5.9 06:42:42 10° W 07:05:43 23° SW 07:11:29 10° S daylight
26 Nov 6.6 18:57:29 10° S 03:25:21 65° SSW 03:39:54 10° ESE visible
26 Nov 6.6 18:57:30 10° S 03:25:21 65° SSW 03:39:53 10° ESE visible
27 Nov 7.7 16:49:04 10° SE 23:30:09 54° SE 00:02:07 10° E visible
27 Nov 7.7 16:49:04 10° SE 23:29:26 54° SE 00:02:07 10° E visible
29 Nov 5.9 06:39:49 10° W 07:01:07 21° WSW 07:06:46 10° S visible
29 Nov 6.6 18:51:15 10° S 03:21:12 64° SSW 03:35:31 10° ESE visible
30 Nov 7.6 16:35:06 10° SE 23:30:01 53° ESE 23:57:54 10° E visible
02 Dec 5.9 06:36:53 10° W 06:56:24 20° WSW 07:01:57 10° SSW visible
02 Dec 6.5 18:45:06 10° S 03:16:58 64° SSW 03:31:05 10° ESE visible
03 Dec 7.6 16:21:23 10° SE 23:29:57 52° ESE 23:53:36 10° E visible
05 Dec 5.9 06:33:52 10° W 06:51:38 18° WSW 06:57:00 10° SSW visible
